,,,PA_Meas_PMT16A,,PR_Meas_QMR101_102,,RH_Meas_QMH101,,SR_Meas_QMS101,,TA_Meas_QMH101,,GenWind,,GenWind,
date,time,status,PA,status,PR,status,RH,status,SR,status,TA,status,DirAvg,status,SpdAvg,
2010-11-20, 00:00:05,VALID,998.902,VALID,0,VALID,90.8306,VALID,0,VALID,23.8183,VALID,98,VALID,0.0476562,
2010-11-20, 00:01:05,VALID,998.863,VALID,0,VALID,91.0137,VALID,0,VALID,23.8183,VALID,98,VALID,0.291797,
2010-11-20, 00:02:05,VALID,998.834,VALID,0,VALID,91.1892,VALID,0,VALID,23.8378,VALID,108,VALID,0.528906,
2010-11-20, 00:03:05,VALID,998.811,VALID,0,VALID,91.3342,VALID,0,VALID,23.8768,VALID,119,VALID,0.555078,
2010-11-20, 00:04:05,VALID,998.786,VALID,0,VALID,91.4334,VALID,0,VALID,23.9159,VALID,119,VALID,0.825781,
2010-11-20, 00:05:05,VALID,998.795,VALID,0,VALID,91.4105,VALID,0,VALID,23.9354,VALID,119,VALID,0.671094,
2010-11-20, 00:06:05,VALID,998.754,VALID,0,VALID,91.3189,VALID,0,VALID,23.9354,VALID,119,VALID,0.665625,
2010-11-20, 00:07:05,VALID,998.713,VALID,0,VALID,91.3418,VALID,0,VALID,23.9549,VALID,119,VALID,0.494141,
2010-11-20, 00:08:05,VALID,998.703,VALID,0,VALID,91.3494,VALID,0,VALID,23.9726,VALID,119,VALID,0.383203,
2010-11-20, 00:09:05,VALID,998.692,VALID,0,VALID,91.2121,VALID,0,VALID,23.9921,VALID,119,VALID,0.118359,
2010-11-20, 00:10:05,VALID,998.635,VALID,0,VALID,91.0443,VALID,0.112286,VALID,23.9726,VALID,119,VALID,0.225781,
2010-11-20, 00:11:05,VALID,998.653,VALID,0,VALID,90.968,VALID,0.112286,VALID,23.9317,VALID,119,VALID,0.1375,
2010-11-20, 00:12:05,VALID,998.627,VALID,0,VALID,90.9832,VALID,0.112286,VALID,23.9531,VALID,119,VALID,0.173438,
2010-11-20, 00:13:05,VALID,998.611,VALID,0,VALID,91.0366,VALID,0.112286,VALID,23.9531,VALID,119,VALID,0.0472656,
2010-11-20, 00:14:05,VALID,998.579,VALID,0,VALID,91.0824,VALID,0.112286,VALID,23.9531,VALID,119,VALID,0.0550781,
2010-11-20, 00:15:05,VALID,998.603,VALID,0,VALID,91.0671,VALID,0,VALID,23.9531,VALID,119,VALID,0.00078125,
2010-11-20, 00:16:05,VALID,998.554,VALID,0,VALID,91.0977,VALID,0.112286,VALID,23.9531,VALID,119,VALID,0.270703,
2010-11-20, 00:17:05,VALID,998.568,VALID,0,VALID,91.09,VALID,0.112286,VALID,23.9317,VALID,119,VALID,0.508203,
2010-11-20, 00:18:05,VALID,998.551,VALID,0,VALID,91.0595,VALID,0,VALID,23.9531,VALID,119,VALID,0.669141,
2010-11-20, 00:19:05,VALID,998.536,VALID,0,VALID,90.9756,VALID,0,VALID,23.9531,VALID,98,VALID,0.637109,
2010-11-20, 00:20:05,VALID,998.478,VALID,0,VALID,90.9527,VALID,0,VALID,23.9531,VALID,81,VALID,0.703516,
2010-11-20, 00:21:05,VALID,998.437,VALID,0,VALID,90.8306,VALID,0.112286,VALID,23.9531,VALID,50,VALID,0.7125,
2010-11-20, 00:22:05,VALID,998.416,VALID,0,VALID,90.617,VALID,0.112286,VALID,23.8927,VALID,33,VALID,0.942187,
2010-11-20, 00:23:05,VALID,998.359,VALID,0,VALID,90.6933,VALID,0.112286,VALID,23.8945,VALID,21,VALID,0.995703,
2010-11-20, 00:24:05,VALID,998.32,VALID,0,VALID,90.7543,VALID,0,VALID,23.8768,VALID,21,VALID,0.875391,
2010-11-20, 00:25:05,VALID,998.293,VALID,0,VALID,90.823,VALID,0,VALID,23.8591,VALID,21,VALID,0.819922,
2010-11-20, 00:26:05,VALID,998.261,VALID,0,VALID,90.8383,VALID,0,VALID,23.7793,VALID,17,VALID,0.767187,
2010-11-20, 00:27:05,VALID,998.246,VALID,0,VALID,90.9146,VALID,0,VALID,23.7616,VALID,17,VALID,0.919922,
2010-11-20, 00:28:05,VALID,998.229,VALID,0,VALID,91.0824,VALID,0,VALID,23.7207,VALID,17,VALID,0.975391,
2010-11-20, 00:29:05,VALID,998.205,VALID,0,VALID,91.1816,VALID,0,VALID,23.7012,VALID,18,VALID,0.912891,
2010-11-20, 00:30:05,VALID,998.178,VALID,0,VALID,91.2655,VALID,0,VALID,23.6835,VALID,20,VALID,0.848047,
2010-11-20, 00:31:05,VALID,998.177,VALID,0,VALID,91.2655,VALID,0,VALID,23.6232,VALID,20,VALID,0.903125,
2010-11-20, 00:32:05,VALID,998.136,VALID,0,VALID,91.2197,VALID,0,VALID,23.5646,VALID,20,VALID,0.873047,
2010-11-20, 00:33:05,VALID,998.136,VALID,0,VALID,91.2045,VALID,0,VALID,23.5451,VALID,20,VALID,0.882031,
2010-11-20, 00:34:05,VALID,998.104,VALID,0,VALID,91.3113,VALID,0,VALID,23.4866,VALID,20,VALID,0.96875,
2010-11-20, 00:35:05,VALID,998.098,VALID,0,VALID,91.4257,VALID,0,VALID,23.4884,VALID,16,VALID,1.08672,
2010-11-20, 00:36:05,VALID,998.082,VALID,0,VALID,91.5707,VALID,0,VALID,23.4866,VALID,13,VALID,1.16836,
2010-11-20, 00:37:05,VALID,998.077,VALID,0,VALID,91.6928,VALID,0,VALID,23.4671,VALID,14,VALID,1.17148,
2010-11-20, 00:38:05,VALID,998.083,VALID,0,VALID,91.7691,VALID,0,VALID,23.4671,VALID,14,VALID,1.13242,
2010-11-20, 00:39:05,VALID,998.061,VALID,0,VALID,91.8301,VALID,0,VALID,23.4671,VALID,14,VALID,1.18203,
2010-11-20, 00:40:05,VALID,998.053,VALID,0,VALID,91.8911,VALID,0,VALID,23.4653,VALID,6,VALID,1.26758,
2010-11-20, 00:41:05,VALID,998.032,VALID,0,VALID,91.9674,VALID,0,VALID,23.5061,VALID,2,VALID,1.19687,
2010-11-20, 00:42:05,VALID,998.032,VALID,0,VALID,92.0666,VALID,0,VALID,23.5043,VALID,8,VALID,1.02148,
2010-11-20, 00:43:05,VALID,997.957,VALID,0,VALID,92.12,VALID,0,VALID,23.5043,VALID,8,VALID,1.08633,
2010-11-20, 00:44:05,VALID,997.998,VALID,0,VALID,92.1429,VALID,0,VALID,23.5433,VALID,11,VALID,0.971484,
2010-11-20, 00:45:05,VALID,997.955,VALID,0,VALID,92.1506,VALID,0,VALID,23.5628,VALID,11,VALID,1.12266,
2010-11-20, 00:46:05,VALID,997.927,VALID,0,VALID,92.1582,VALID,0,VALID,23.6019,VALID,12,VALID,1.26602,
2010-11-20, 00:47:05,VALID,997.888,VALID,0,VALID,92.1048,VALID,0,VALID,23.6214,VALID,30,VALID,0.982813,
2010-11-20, 00:48:05,VALID,997.902,VALID,0,VALID,92.0209,VALID,0,VALID,23.6604,VALID,30,VALID,0.986328,
2010-11-20, 00:49:05,VALID,997.856,VALID,0,VALID,91.8835,VALID,0,VALID,23.7012,VALID,32,VALID,1.00547,
2010-11-20, 00:50:05,VALID,997.885,VALID,0,VALID,91.7843,VALID,0,VALID,23.6994,VALID,35,VALID,0.734375,
2010-11-20, 00:51:05,VALID,997.856,VALID,0,VALID,91.6928,VALID,0,VALID,23.7189,VALID,35,VALID,0.442578,
2010-11-20, 00:52:05,VALID,997.882,VALID,0,VALID,91.5554,VALID,0,VALID,23.7597,VALID,35,VALID,0.401953,
2010-11-20, 00:53:05,VALID,997.864,VALID,0,VALID,91.4257,VALID,0,VALID,23.7384,VALID,59,VALID,0.681641,
2010-11-20, 00:54:05,VALID,997.868,VALID,0,VALID,91.3266,VALID,0,VALID,23.7616,VALID,59,VALID,0.635547,
2010-11-20, 00:55:05,VALID,997.842,VALID,0,VALID,91.2197,VALID,0,VALID,23.7207,VALID,59,VALID,0.426172,
2010-11-20, 00:56:05,VALID,997.853,VALID,0,VALID,91.1282,VALID,0,VALID,23.7207,VALID,59,VALID,0.238281,
2010-11-20, 00:57:05,VALID,997.822,VALID,0,VALID,91.0366,VALID,0,VALID,23.6622,VALID,59,VALID,0.18125,
2010-11-20, 00:58:05,VALID,997.83,VALID,0,VALID,91.0061,VALID,0,VALID,23.6622,VALID,59,VALID,0.417969,
2010-11-20, 00:59:05,VALID,997.821,VALID,0,VALID,91.0748,VALID,0,VALID,23.6622,VALID,59,VALID,0.596484,
2010-11-20, 01:00:05,VALID,997.805,VALID,0,VALID,91.1816,VALID,0,VALID,23.6622,VALID,67,VALID,1.05117,
2010-11-20, 01:01:05,VALID,997.781,VALID,0,VALID,91.3189,VALID,0,VALID,23.6817,VALID,71,VALID,1.18711,
2010-11-20, 01:02:05,VALID,997.799,VALID,0,VALID,91.4639,VALID,0,VALID,23.7012,VALID,79,VALID,1.00937,
2010-11-20, 01:03:05,VALID,997.765,VALID,0,VALID,91.4944,VALID,0,VALID,23.7207,VALID,79,VALID,0.773828,
2010-11-20, 01:04:05,VALID,997.756,VALID,0,VALID,91.5173,VALID,0,VALID,23.7402,VALID,77,VALID,0.539063,
2010-11-20, 01:05:05,VALID,997.751,VALID,0,VALID,91.4257,VALID,0,VALID,23.7402,VALID,77,VALID,0.0777344,
2010-11-20, 01:06:05,VALID,997.72,VALID,0,VALID,91.3342,VALID,0,VALID,23.7207,VALID,77,VALID,0.0925781,
2010-11-20, 01:07:05,VALID,997.738,VALID,0,VALID,91.2884,VALID,0,VALID,23.7207,VALID,77,VALID,0.187109,
2010-11-20, 01:08:05,VALID,997.687,VALID,0,VALID,91.3418,VALID,0,VALID,23.6994,VALID,77,VALID,0.345313,
2010-11-20, 01:09:05,VALID,997.699,VALID,0,VALID,91.4028,VALID,0,VALID,23.7402,VALID,77,VALID,0.246094,
2010-11-20, 01:10:05,VALID,997.653,VALID,0,VALID,91.441,VALID,0,VALID,23.7597,VALID,77,VALID,0.128906,
2010-11-20, 01:11:05,VALID,997.677,VALID,0,VALID,91.4715,VALID,0,VALID,23.7616,VALID,77,VALID,0.0160156,
2010-11-20, 01:12:05,VALID,997.701,VALID,0,VALID,91.4639,VALID,0,VALID,23.7402,VALID,77,VALID,0.221484,
2010-11-20, 01:13:04,VALID,997.703,VALID,0,VALID,91.5249,VALID,0,VALID,23.7597,VALID,77,VALID,0.0957031,
2010-11-20, 01:14:04,VALID,997.717,VALID,0,VALID,91.5554,VALID,0,VALID,23.7597,VALID,77,VALID,0.0976563,
2010-11-20, 01:15:04,VALID,997.708,VALID,0,VALID,91.586,VALID,0,VALID,23.7597,VALID,77,VALID,0.130859,
2010-11-20, 01:16:04,VALID,997.702,VALID,0,VALID,91.6241,VALID,0,VALID,23.7597,VALID,77,VALID,0.0617188,
2010-11-20, 01:17:04,VALID,997.747,VALID,0,VALID,91.6394,VALID,0,VALID,23.7597,VALID,77,VALID,0.00585938,
2010-11-20, 01:18:04,VALID,997.721,VALID,0,VALID,91.6241,VALID,0,VALID,23.7402,VALID,77,VALID,0.00351562,
2010-11-20, 01:19:04,VALID,997.747,VALID,0,VALID,91.5783,VALID,0,VALID,23.7012,VALID,77,VALID,0.369922,
2010-11-20, 01:20:04,VALID,997.746,VALID,0,VALID,91.5554,VALID,0,VALID,23.6817,VALID,77,VALID,0.575,
2010-11-20, 01:21:04,VALID,997.766,VALID,0,VALID,91.6317,VALID,0,VALID,23.6817,VALID,29,VALID,0.866406,
2010-11-20, 01:22:04,VALID,997.767,VALID,0,VALID,91.6699,VALID,0,VALID,23.6622,VALID,12,VALID,0.800391,
2010-11-20, 01:23:04,VALID,997.746,VALID,0,VALID,91.708,VALID,0,VALID,23.6622,VALID,12,VALID,0.853906,
2010-11-20, 01:24:04,VALID,997.762,VALID,0,VALID,91.708,VALID,0,VALID,23.6427,VALID,12,VALID,0.925,
2010-11-20, 01:25:04,VALID,997.782,VALID,0,VALID,91.6317,VALID,0,VALID,23.6232,VALID,12,VALID,0.7625,
2010-11-20, 01:26:04,VALID,997.761,VALID,0,VALID,91.5783,VALID,0,VALID,23.5841,VALID,12,VALID,0.715625,
2010-11-20, 01:27:04,VALID,997.743,VALID,0,VALID,91.5402,VALID,0,VALID,23.5841,VALID,12,VALID,0.764063,
2010-11-20, 01:28:04,VALID,997.784,VALID,0,VALID,91.5631,VALID,0,VALID,23.5841,VALID,14,VALID,1,
2010-11-20, 01:29:04,VALID,997.753,VALID,0,VALID,91.5554,VALID,0,VALID,23.5646,VALID,14,VALID,0.974609,
2010-11-20, 01:30:04,VALID,997.723,VALID,0,VALID,91.5707,VALID,0,VALID,23.5841,VALID,15,VALID,0.909375,
2010-11-20, 01:31:04,VALID,997.724,VALID,0,VALID,91.5249,VALID,0,VALID,23.5646,VALID,15,VALID,0.853906,
2010-11-20, 01:32:04,VALID,997.707,VALID,0,VALID,91.4257,VALID,0,VALID,23.5646,VALID,15,VALID,0.775391,
2010-11-20, 01:33:04,VALID,997.685,VALID,0,VALID,91.3723,VALID,0,VALID,23.5451,VALID,15,VALID,0.601172,
2010-11-20, 01:34:04,VALID,997.667,VALID,0,VALID,91.3418,VALID,0,VALID,23.5238,VALID,15,VALID,0.521875,
2010-11-20, 01:35:04,VALID,997.668,VALID,0,VALID,91.3266,VALID,0,VALID,23.5646,VALID,15,VALID,0.23125,
2010-11-20, 01:36:04,VALID,997.643,VALID,0,VALID,91.2579,VALID,0,VALID,23.5238,VALID,15,VALID,0,
2010-11-20, 01:37:04,VALID,997.662,VALID,0,VALID,91.1968,VALID,0,VALID,23.5256,VALID,15,VALID,0,
2010-11-20, 01:38:04,VALID,997.693,VALID,0,VALID,91.2121,VALID,0,VALID,23.5061,VALID,15,VALID,0.00351562,
2010-11-20, 01:39:04,VALID,997.702,VALID,0,VALID,91.2274,VALID,0,VALID,23.4848,VALID,15,VALID,0,
2010-11-20, 01:40:04,VALID,997.666,VALID,0,VALID,91.3342,VALID,0,VALID,23.5061,VALID,15,VALID,0.285156,
2010-11-20, 01:41:04,VALID,997.639,VALID,0,VALID,91.3876,VALID,0,VALID,23.5256,VALID,15,VALID,0.330469,
2010-11-20, 01:42:04,VALID,997.642,VALID,0,VALID,91.4105,VALID,0,VALID,23.5061,VALID,15,VALID,0.227734,
2010-11-20, 01:43:04,VALID,997.609,VALID,0,VALID,91.4105,VALID,0,VALID,23.5256,VALID,15,VALID,0.327734,
2010-11-20, 01:44:04,VALID,997.547,VALID,0,VALID,91.441,VALID,0,VALID,23.5451,VALID,15,VALID,0.251953,
2010-11-20, 01:45:04,VALID,997.54,VALID,0,VALID,91.5097,VALID,0,VALID,23.5256,VALID,15,VALID,0.325,
2010-11-20, 01:46:04,VALID,997.517,VALID,0,VALID,91.6088,VALID,0,VALID,23.5451,VALID,15,VALID,0.482031,
2010-11-20, 01:47:04,VALID,997.502,VALID,0,VALID,91.6775,VALID,0,VALID,23.5646,VALID,15,VALID,0.561328,
2010-11-20, 01:48:04,VALID,997.524,VALID,0,VALID,91.7309,VALID,0,VALID,23.5841,VALID,15,VALID,0.501172,
2010-11-20, 01:49:04,VALID,997.491,VALID,0,VALID,91.7385,VALID,0,VALID,23.5841,VALID,15,VALID,0.521484,
2010-11-20, 01:50:04,VALID,997.499,VALID,0,VALID,91.7538,VALID,0,VALID,23.6036,VALID,15,VALID,0.403516,
2010-11-20, 01:51:04,VALID,997.475,VALID,0,VALID,91.7385,VALID,0,VALID,23.6232,VALID,15,VALID,0.298047,
2010-11-20, 01:52:04,VALID,997.441,VALID,0,VALID,91.7385,VALID,0,VALID,23.6427,VALID,15,VALID,0.282813,
2010-11-20, 01:53:04,VALID,997.426,VALID,0,VALID,91.7233,VALID,0,VALID,23.6427,VALID,15,VALID,0.285547,
2010-11-20, 01:54:04,VALID,997.411,VALID,0,VALID,91.7309,VALID,0,VALID,23.6427,VALID,15,VALID,0.175391,
2010-11-20, 01:55:04,VALID,997.386,VALID,0,VALID,91.6928,VALID,0,VALID,23.6214,VALID,15,VALID,0.532031,
2010-11-20, 01:56:04,VALID,997.357,VALID,0,VALID,91.708,VALID,0,VALID,23.6622,VALID,145,VALID,0.823438,
2010-11-20, 01:57:04,VALID,997.339,VALID,0,VALID,91.7233,VALID,0,VALID,23.6817,VALID,133,VALID,0.847266,
2010-11-20, 01:58:04,VALID,997.342,VALID,0,VALID,91.7385,VALID,0,VALID,23.6994,VALID,124,VALID,0.899219,
2010-11-20, 01:59:04,VALID,997.357,VALID,0,VALID,91.7385,VALID,0,VALID,23.7597,VALID,124,VALID,0.7125,
2010-11-20, 02:00:04,VALID,997.31,VALID,0,VALID,91.6928,VALID,0,VALID,23.7597,VALID,124,VALID,0.724219,
2010-11-20, 02:01:04,VALID,997.338,VALID,0,VALID,91.5936,VALID,0,VALID,23.7597,VALID,104,VALID,0.848437,
2010-11-20, 02:02:04,VALID,997.325,VALID,0,VALID,91.4944,VALID,0,VALID,23.7207,VALID,94,VALID,0.582422,
2010-11-20, 02:03:04,VALID,997.362,VALID,0,VALID,91.4334,VALID,0,VALID,23.7207,VALID,89,VALID,0.617969,
2010-11-20, 02:04:04,VALID,997.336,VALID,0,VALID,91.3876,VALID,0,VALID,23.7207,VALID,89,VALID,0.155078,
2010-11-20, 02:05:04,VALID,997.335,VALID,0,VALID,91.3037,VALID,0,VALID,23.7012,VALID,89,VALID,0.169531,
2010-11-20, 02:06:04,VALID,997.341,VALID,0,VALID,91.3113,VALID,0,VALID,23.6817,VALID,89,VALID,0.289844,
2010-11-20, 02:07:04,VALID,997.367,VALID,0,VALID,91.3571,VALID,0,VALID,23.6817,VALID,89,VALID,0,
2010-11-20, 02:08:04,VALID,997.338,VALID,0,VALID,91.441,VALID,0,VALID,23.6622,VALID,89,VALID,0,
2010-11-20, 02:09:04,VALID,997.32,VALID,0,VALID,91.5097,VALID,0,VALID,23.6817,VALID,89,VALID,0.320703,
2010-11-20, 02:10:04,VALID,997.323,VALID,0,VALID,91.6088,VALID,0,VALID,23.6622,VALID,89,VALID,0.450391,
2010-11-20, 02:11:04,VALID,997.339,VALID,0,VALID,91.7004,VALID,0,VALID,23.6409,VALID,89,VALID,0.603906,
2010-11-20, 02:12:04,VALID,997.315,VALID,0,VALID,91.7309,VALID,0,VALID,23.6622,VALID,88,VALID,0.547266,
2010-11-20, 02:13:04,VALID,997.334,VALID,0,VALID,91.7462,VALID,0,VALID,23.6622,VALID,81,VALID,0.726563,
2010-11-20, 02:14:04,VALID,997.38,VALID,0,VALID,91.7385,VALID,0,VALID,23.6427,VALID,81,VALID,0.723047,
2010-11-20, 02:15:04,VALID,997.372,VALID,0,VALID,91.6623,VALID,0,VALID,23.6036,VALID,81,VALID,0.745313,
2010-11-20, 02:16:04,VALID,997.386,VALID,0,VALID,91.6012,VALID,0,VALID,23.5841,VALID,81,VALID,0.578125,
2010-11-20, 02:17:04,VALID,997.394,VALID,0,VALID,91.5783,VALID,0,VALID,23.5451,VALID,352,VALID,0.669531,
2010-11-20, 02:18:04,VALID,997.374,VALID,0,VALID,91.5783,VALID,0,VALID,23.5061,VALID,352,VALID,0.438281,
2010-11-20, 02:19:04,VALID,997.381,VALID,0,VALID,91.6317,VALID,0,VALID,23.4866,VALID,353,VALID,0.577734,
2010-11-20, 02:20:04,VALID,997.39,VALID,0,VALID,91.6775,VALID,0,VALID,23.4866,VALID,52,VALID,0.891797,
2010-11-20, 02:21:04,VALID,997.359,VALID,0,VALID,91.7385,VALID,0,VALID,23.4458,VALID,52,VALID,0.806641,
2010-11-20, 02:22:04,VALID,997.408,VALID,0,VALID,91.7996,VALID,0,VALID,23.4458,VALID,52,VALID,0.63125,
2010-11-20, 02:23:04,VALID,997.397,VALID,0,VALID,91.8759,VALID,0,VALID,23.4671,VALID,52,VALID,0.605469,
2010-11-20, 02:24:04,VALID,997.407,VALID,0,VALID,91.8683,VALID,0,VALID,23.4475,VALID,52,VALID,0.494922,
2010-11-20, 02:25:04,VALID,997.424,VALID,0,VALID,91.853,VALID,0,VALID,23.428,VALID,9,VALID,0.561719,
2010-11-20, 02:26:04,VALID,997.355,VALID,0,VALID,91.9369,VALID,0,VALID,23.428,VALID,9,VALID,0.655859,
2010-11-20, 02:27:04,VALID,997.338,VALID,0,VALID,91.9674,VALID,0,VALID,23.4475,VALID,9,VALID,0.476172,
2010-11-20, 02:28:04,VALID,997.347,VALID,0,VALID,91.998,VALID,0,VALID,23.4263,VALID,9,VALID,0.588672,
2010-11-20, 02:29:04,VALID,997.346,VALID,0,VALID,92.0056,VALID,0,VALID,23.428,VALID,9,VALID,0.465234,
2010-11-20, 02:30:04,VALID,997.355,VALID,0,VALID,91.9827,VALID,0,VALID,23.4085,VALID,9,VALID,0.54375,
2010-11-20, 02:31:04,VALID,997.327,VALID,0,VALID,91.9903,VALID,0,VALID,23.389,VALID,9,VALID,0.4625,
2010-11-20, 02:32:04,VALID,997.303,VALID,0,VALID,92.0132,VALID,0,VALID,23.389,VALID,9,VALID,0.220703,
2010-11-20, 02:33:04,VALID,997.296,VALID,0,VALID,91.998,VALID,0,VALID,23.35,VALID,9,VALID,0.297266,
2010-11-20, 02:34:04,VALID,997.244,VALID,0,VALID,91.998,VALID,0,VALID,23.3305,VALID,9,VALID,0.405859,
2010-11-20, 02:35:04,VALID,997.201,VALID,0,VALID,92.0666,VALID,0,VALID,23.3695,VALID,341,VALID,0.660547,
2010-11-20, 02:36:04,VALID,997.191,VALID,0,VALID,92.1429,VALID,0,VALID,23.4085,VALID,331,VALID,0.512109,
2010-11-20, 02:37:04,VALID,997.182,VALID,0,VALID,92.2268,VALID,0,VALID,23.428,VALID,331,VALID,0.312109,
2010-11-20, 02:38:04,VALID,997.162,VALID,0,VALID,92.2574,VALID,0,VALID,23.4475,VALID,331,VALID,0.182422,
2010-11-20, 02:39:04,VALID,997.141,VALID,0,VALID,92.2955,VALID,0,VALID,23.4475,VALID,331,VALID,0.296875,
2010-11-20, 02:40:04,VALID,997.12,VALID,0,VALID,92.2955,VALID,0,VALID,23.4475,VALID,331,VALID,0.595703,
2010-11-20, 02:41:04,VALID,997.151,VALID,0,VALID,92.3184,VALID,0,VALID,23.4671,VALID,331,VALID,0.776563,
2010-11-20, 02:42:04,VALID,997.095,VALID,0,VALID,92.265,VALID,0,VALID,23.4475,VALID,331,VALID,0.853125,
2010-11-20, 02:43:04,VALID,997.075,VALID,0,VALID,92.204,VALID,0,VALID,23.428,VALID,334,VALID,0.720703,
2010-11-20, 02:44:04,VALID,997.07,VALID,0,VALID,92.1582,VALID,0,VALID,23.4085,VALID,7,VALID,0.888672,
2010-11-20, 02:45:04,VALID,997.032,VALID,0,VALID,92.1506,VALID,0,VALID,23.389,VALID,30,VALID,0.810156,
2010-11-20, 02:46:04,VALID,997.024,VALID,0,VALID,92.1582,VALID,0,VALID,23.389,VALID,34,VALID,0.680859,
2010-11-20, 02:47:04,VALID,996.992,VALID,0,VALID,92.0971,VALID,0,VALID,23.3695,VALID,35,VALID,0.224609,
2010-11-20, 02:48:04,VALID,997.008,VALID,0,VALID,92.0666,VALID,0,VALID,23.35,VALID,35,VALID,0.467578,
2010-11-20, 02:49:04,VALID,997.013,VALID,0,VALID,92.0666,VALID,0,VALID,23.35,VALID,35,VALID,0.298828,
2010-11-20, 02:50:04,VALID,996.987,VALID,0,VALID,92.1124,VALID,0,VALID,23.35,VALID,35,VALID,0.0503906,
2010-11-20, 02:51:04,VALID,996.98,VALID,0,VALID,92.1887,VALID,0,VALID,23.35,VALID,35,VALID,0,
2010-11-20, 02:52:04,VALID,996.966,VALID,0,VALID,92.1963,VALID,0,VALID,23.35,VALID,35,VALID,0,
2010-11-20, 02:53:04,VALID,996.977,VALID,0,VALID,92.2421,VALID,0,VALID,23.35,VALID,35,VALID,0,
2010-11-20, 02:54:04,VALID,996.982,VALID,0,VALID,92.2879,VALID,0,VALID,23.35,VALID,35,VALID,0,
2010-11-20, 02:55:04,VALID,996.959,VALID,0,VALID,92.3184,VALID,0,VALID,23.3695,VALID,35,VALID,0,
2010-11-20, 02:56:04,VALID,996.945,VALID,0,VALID,92.326,VALID,0,VALID,23.3695,VALID,35,VALID,0,
2010-11-20, 02:57:04,VALID,996.947,VALID,0,VALID,92.3794,VALID,0,VALID,23.3695,VALID,35,VALID,0,
2010-11-20, 02:58:04,VALID,996.932,VALID,0,VALID,92.3871,VALID,0,VALID,23.3695,VALID,35,VALID,0.408984,
2010-11-20, 02:59:04,VALID,996.957,VALID,0,VALID,92.4023,VALID,0,VALID,23.3713,VALID,35,VALID,0.453516,
2010-11-20, 03:00:04,VALID,996.963,VALID,0,VALID,92.3718,VALID,0,VALID,23.3305,VALID,35,VALID,0.407422,
2010-11-20, 03:01:04,VALID,996.951,VALID,0,VALID,92.3718,VALID,0,VALID,23.3305,VALID,35,VALID,0.55625,
2010-11-20, 03:02:04,VALID,996.959,VALID,0,VALID,92.3642,VALID,0,VALID,23.3305,VALID,35,VALID,0.649609,
2010-11-20, 03:03:04,VALID,996.984,VALID,0,VALID,92.4176,VALID,0,VALID,23.35,VALID,35,VALID,0.701563,
2010-11-20, 03:04:04,VALID,997.023,VALID,0,VALID,92.4252,VALID,0,VALID,23.3908,VALID,35,VALID,0.673437,
2010-11-20, 03:05:04,VALID,997.015,VALID,0,VALID,92.4557,VALID,0,VALID,23.3908,VALID,35,VALID,0.742969,
2010-11-20, 03:06:04,VALID,997.019,VALID,0,VALID,92.4023,VALID,0,VALID,23.35,VALID,42,VALID,0.939844,
2010-11-20, 03:07:04,VALID,996.99,VALID,0,VALID,92.3947,VALID,0,VALID,23.3695,VALID,44,VALID,0.868359,
2010-11-20, 03:08:04,VALID,997.032,VALID,0,VALID,92.3337,VALID,0,VALID,23.3695,VALID,44,VALID,0.941016,
2010-11-20, 03:09:04,VALID,997.07,VALID,0,VALID,92.3031,VALID,0,VALID,23.3695,VALID,44,VALID,0.804688,
2010-11-20, 03:10:04,VALID,997.091,VALID,0,VALID,92.2345,VALID,0,VALID,23.3695,VALID,44,VALID,0.610156,
2010-11-20, 03:11:04,VALID,997.107,VALID,0,VALID,92.2116,VALID,0,VALID,23.35,VALID,44,VALID,0.5,
2010-11-20, 03:12:04,VALID,997.137,VALID,0,VALID,92.2116,VALID,0,VALID,23.3908,VALID,44,VALID,0.150391,
2010-11-20, 03:13:04,VALID,997.147,VALID,0,VALID,92.1506,VALID,0,VALID,23.3695,VALID,44,VALID,0.232422,
2010-11-20, 03:14:04,VALID,997.149,VALID,0,VALID,92.1658,VALID,0,VALID,23.389,VALID,44,VALID,0.289453,
2010-11-20, 03:15:04,VALID,997.159,VALID,0,VALID,92.2268,VALID,0,VALID,23.428,VALID,44,VALID,0.409766,
2010-11-20, 03:16:04,VALID,997.17,VALID,0,VALID,92.2574,VALID,0,VALID,23.4866,VALID,76,VALID,0.825391,
2010-11-20, 03:17:04,VALID,997.116,VALID,0,VALID,92.2116,VALID,0,VALID,23.5451,VALID,77,VALID,0.9,
2010-11-20, 03:18:04,VALID,997.12,VALID,0,VALID,92.0971,VALID,0,VALID,23.5451,VALID,79,VALID,0.767969,
2010-11-20, 03:19:04,VALID,997.082,VALID,0,VALID,91.9522,VALID,0,VALID,23.5664,VALID,79,VALID,0.744531,
2010-11-20, 03:20:04,VALID,997.064,VALID,0,VALID,91.792,VALID,0,VALID,23.5061,VALID,97,VALID,0.741016,
2010-11-20, 03:21:04,VALID,997.05,VALID,0,VALID,91.7309,VALID,0,VALID,23.5256,VALID,102,VALID,0.853516,
2010-11-20, 03:22:04,VALID,997.056,VALID,0,VALID,91.6699,VALID,0,VALID,23.5256,VALID,129,VALID,0.915234,
2010-11-20, 03:23:04,VALID,997.031,VALID,0,VALID,91.6317,VALID,0,VALID,23.5256,VALID,131,VALID,0.694531,
2010-11-20, 03:24:04,VALID,997.031,VALID,0,VALID,91.6623,VALID,0,VALID,23.5628,VALID,131,VALID,0.488281,
2010-11-20, 03:25:04,VALID,996.982,VALID,0,VALID,91.6317,VALID,0,VALID,23.6019,VALID,131,VALID,0.348828,
2010-11-20, 03:26:04,VALID,997.011,VALID,0,VALID,91.502,VALID,0,VALID,23.5823,VALID,131,VALID,0,
2010-11-20, 03:27:04,VALID,997.017,VALID,0,VALID,91.4334,VALID,0,VALID,23.5823,VALID,131,VALID,0.00351562,
2010-11-20, 03:28:04,VALID,996.979,VALID,0,VALID,91.3952,VALID,0,VALID,23.5823,VALID,131,VALID,0.338281,
2010-11-20, 03:29:04,VALID,996.972,VALID,0,VALID,91.3418,VALID,0,VALID,23.5628,VALID,131,VALID,0.229297,
2010-11-20, 03:30:04,VALID,996.989,VALID,0,VALID,91.3113,VALID,0,VALID,23.5628,VALID,131,VALID,0.021875,
2010-11-20, 03:31:04,VALID,997.009,VALID,0,VALID,91.3647,VALID,0,VALID,23.5433,VALID,131,VALID,0,
2010-11-20, 03:32:04,VALID,997.034,VALID,0,VALID,91.4181,VALID,0,VALID,23.5628,VALID,131,VALID,0.19375,
2010-11-20, 03:33:04,VALID,997.036,VALID,0,VALID,91.5554,VALID,0,VALID,23.5433,VALID,131,VALID,0.378906,
2010-11-20, 03:34:04,VALID,997.114,VALID,0,VALID,91.6394,VALID,0,VALID,23.5628,VALID,131,VALID,0.222266,
2010-11-20, 03:35:04,VALID,997.109,VALID,0,VALID,91.6546,VALID,0,VALID,23.5433,VALID,131,VALID,0.332812,
2010-11-20, 03:36:04,VALID,997.142,VALID,0,VALID,91.6928,VALID,0,VALID,23.5238,VALID,131,VALID,0.361719,
2010-11-20, 03:37:04,VALID,997.185,VALID,0,VALID,91.7691,VALID,0.112286,VALID,23.5433,VALID,131,VALID,0.456641,
2010-11-20, 03:38:04,VALID,997.208,VALID,0,VALID,91.7462,VALID,0,VALID,23.5433,VALID,131,VALID,0.507422,
2010-11-20, 03:39:04,VALID,997.232,VALID,0,VALID,91.792,VALID,0,VALID,23.5433,VALID,133,VALID,0.801953,
2010-11-20, 03:40:04,VALID,997.24,VALID,0,VALID,91.8072,VALID,0.112286,VALID,23.5823,VALID,145,VALID,0.576953,
2010-11-20, 03:41:04,VALID,997.235,VALID,0,VALID,91.7767,VALID,0,VALID,23.6019,VALID,145,VALID,0.943359,
2010-11-20, 03:42:04,VALID,997.248,VALID,0,VALID,91.7233,VALID,0,VALID,23.6427,VALID,134,VALID,0.9625,
2010-11-20, 03:43:04,VALID,997.263,VALID,0,VALID,91.6394,VALID,0.112286,VALID,23.6799,VALID,134,VALID,1.0918,
2010-11-20, 03:44:04,VALID,997.286,VALID,0,VALID,91.5249,VALID,0.112286,VALID,23.7171,VALID,132,VALID,0.914453,
2010-11-20, 03:45:04,VALID,997.277,VALID,0,VALID,91.38,VALID,0,VALID,23.7579,VALID,132,VALID,0.792188,
2010-11-20, 03:46:04,VALID,997.291,VALID,0,VALID,91.1816,VALID,0,VALID,23.7171,VALID,132,VALID,0.558203,